Flag for Germany Weather past 2 weeks in Minden, North Rhine-Westphalia, Germany

Now
64 °F

Passing clouds.


Feels Like: 64 °F
Forecast: 59 / 75 °F
Wind: 5 mph from South

Location: Bueckeburg

Current Time: Sep 18, 2014 at 10:15:52 PM

Latest Report: Sep 18, 2014 at 9:20 PM


Visibility: N/A

Pressure: 29.89 "Hg

Humidity: 78%

Dew point: 57 °F

Location of MindenLocation

Historic Weather in Minden — Graph

°F

Minden temperature yesterday

Maximum temperature yesterday: 75 °F (at 3:20 PM)
Minimum temperature yesterday: 57 °F (at 6:20 AM)
Average temperature yesterday: 66 °F

Past Weeks' High & Low Weather Summary

 TemperatureHumidityPressure
High79 °F (Sep 18, 4:20 PM)100% (Sep 4, 5:20 AM)30.24 "Hg (Sep 4, 5:20 AM)
Low48 °F (Sep 12, 1:20 AM)50% (Sep 17, 3:20 PM)29.86 "Hg (Sep 6, 4:20 PM)
Average62 °F83%30.04 "Hg
* Reported Sep 3 8:20 PM — Sep 18 8:20 PM, Minden, Weather by CustomWeather, © 2014

Note: Actual official high and low records may vary slightly from our data, if they occured in-between our weather recording intervals... More about our weather records

Advertising

Minden weather history for previous 24 hours

 ConditionsComfort  
Time TempWeatherWind HumidityBarometerVisibility
8:20 PM
Sep 18
66 °FPassing clouds.6 mph78%29.89 "HgN/A
7:20 PM70 °FPassing clouds.5 mph69%29.86 "HgN/A
6:20 PM73 °FPassing clouds.12 mph57%29.89 "HgN/A
5:20 PM77 °FPassing clouds.7 mph54%29.86 "HgN/A
4:20 PM79 °FPassing clouds.3 mph51%29.86 "HgN/A
3:20 PM77 °FPassing clouds.6 mph51%29.86 "HgN/A
2:20 PM75 °FPassing clouds.5 mph54%29.86 "HgN/A
1:20 PM75 °FPassing clouds.6 mph54%29.86 "HgN/A
12:20 PM73 °FPassing clouds.3 mph65%29.89 "HgN/A
11:20 AM70 °FPassing clouds.3 mph73%29.89 "HgN/A
10:20 AM66 °FPassing clouds.2 mph78%29.89 "HgN/A
9:20 AM61 °FPassing clouds.2 mph83%29.89 "HgN/A
8:55 AM59 °FPassing clouds.3 mph88%29.89 "Hg5 mi
8:20 AM55 °FFog.1 mph100%29.89 "Hg2 mi
7:58 AM54 °FFog.No wind100%29.89 "Hg2 mi
7:20 AM52 °FFog.1 mph94%29.89 "Hg0 mi
6:20 AM54 °FFog.No wind94%29.89 "Hg0 mi
5:20 AM55 °FFog.1 mph94%29.89 "HgN/A
4:20 AM55 °FFog.2 mph94%29.89 "HgN/A
3:20 AM55 °FFog.2 mph100%29.89 "HgN/A
2:20 AM55 °FFog.3 mph100%29.92 "HgN/A
1:20 AM59 °FPassing clouds.1 mph88%29.92 "HgN/A
12:20 AM61 °FPassing clouds.2 mph88%29.92 "HgN/A
11:20 PM
Sep 17
61 °FPassing clouds.1 mph88%29.92 "HgN/A
10:20 PM64 °FPassing clouds.2 mph78%29.92 "HgN/A
Weather by CustomWeather, © 2014

See weather overviewHow to use our weather pages